Presure
161 142 151 195 159 147 151 142 149 137 143 203 138 184 193 224 197 107 202 99 137 91 176 149 198 174 184 109 205 197 208 193 210 209 195 164 170 174
140 137 176 177 140 138 196 146 137 142 163 138 141 143 125 176 135 174 199 166 202 190 194 212 147 185 166 228 182 222 198 145 148 135 177 184 147 184
154 184 183 215 168 161 162 201 128 147 144 156 201 222 204 190 200 189 151 197 192 216 222 198 221 143 225 229 174 152 168 235 216 196 145 206 102 151
225 222 133 190 222 205 204 192 180 225 215 207 191 195 217 182 195 189 200 223 185 237 236 230 230 181 233 251 251 249 230 229 243 147 236 198 146 207
217 206 186 210 187 201 188 188 195 212 214 216 207 216 205 203 208 224 233 240 241 240 243 243 243 242 245 248 247 247 251 251 240 255 225 240 232 197
206 200 218 216 213 212 215 218 222 220 222 228 226 224 231 223 229 238 242 237 244 187 248 254 175 235 253 246 249 222 188 259 263 272 254 264 249 241
230 239 236 235 233 233 234 235 235 231 230 232 236 239 245 239 248 240 236 247 245 203 246 250 261 259 286 243 282 281 242 289 290 259 259 244 288 261
235 245 245 245 247 246 243 237 250 248 250 248 246 252 262 268 259 250 266 257 227 251 254 280 241 234 244 267 334 341 344 337 207 238 231 250 265 288
251 243 243 258 254 263 265 261 249 257 251 250 250 260 261 257 254 241 238 247 220 259 231 245 333 348 370 388 388 398 399 374 344 332 320 317 316 302
291 286 287 281 267 267 279 253 249 251 245 259 285 259 240 234 302 339 309 263 322 336 347 371 373 371 374 379 386 387 383 396 393 384 356 340 319 313
346 349 344 339 331 323 317 318 292 328 329 316 324 341 365 344 350 336 358 362 355 351 346 340 332 330 334 340 343 350 367 370 365 375 371 370 340 331
351 351 342 335 341 344 343 356 353 344 352 352 344 351 351 353 350 345 342 336 336 329 320 316 314 312 321 319 313 313 322 330 349 358 355 349 346 336
266 294 327 339 313 338 336 331 329 326 329 332 331 333 335 330 332 332 326 318 315 315 311 302 301 309 314 312 289 300 301 301 309 318 331 350 351 343
276 281 293 267 309 324 332 330 327 328 313 325 321 323 329 325 317 317 310 307 314 310 308 314 308 305 308 303 308 299 299 293 295 297 300 308 320 329
265 266 265 265 280 258 259 276 279 284 321 316 317 318 313 286 304 310 307 307 302 304 302 302 304 300 295 299 302 298 300 297 294 290 293 294 299 303
272 273 270 263 267 265 276 278 276 270 277 309 272 302 291 303 300 301 300 298 297 294 302 299 299 305 306 311 302 307 325 325 321 317 316 318 320 320
262 269 284 271 276 261 265 262 277 271 273 302 264 281 285 234 303 251 305 306 309 306 299 298 302 317 325 318 315 319 323 327 320 325 332 339 188 344
260 256 257 263 274 266 263 259 263 202 251 274 266 269 238 283 314 312 282 278 240 312 310 310 317 320 309 306 317 320 319 316 321 325 326 334 334 332
269 265 263 255 252 250 252 251 264 267 262 266 261 260 260 253 246 250 272 277 308 303 298 304 311 305 312 305 293 300 317 331 316 317 414 435 416 331
272 272 270 266 266 262 257 261 265 259 262 261 260 255 253 253 257 257 231 270 271 295 296 296 305 303 296 296 296 300 305 505 736 605 574 556 561 580
295 292 278 272 271 269 265 263 261 261 257 261 254 255 256 253 249 263 235 270 275 294 292 297 299 284 285 291 307 276 411 419 449 537 581 573 341 558
290 302 308 288 272 269 269 268 264 262 259 254 255 256 254 260 261 259 264 271 281 286 291 292 281 274 277 292 263 370 346 432 451 453 450 460 473 491
288 285 291 316 293 281 273 267 265 264 262 261 263 261 262 254 255 262 270 275 281 286 289 280 274 267 261 273 261 345 379 425 470 473 470 469 464 459
Wind_Speed
112 90 101 119 106 92 90 87 89 79 81 111 76 100 94 102 89 74 85 62 75 54 75 74 71 72 74 64 73 71 70 70 69 67 63 64 59 59
100 95 116 113 89 86 117 91 85 89 95 85 85 85 85 90 79 84 86 80 88 84 84 85 71 78 77 80 76 77 76 70 66 64 67 65 68 65
117 124 123 127 113 112 106 112 85 101 95 100 105 110 101 94 94 88 84 93 89 98 94 87 91 78 87 84 80 79 78 79 80 79 70 77 57 69
132 130 94 117 127 119 118 110 105 117 113 111 104 107 108 97 100 97 101 104 92 99 98 97 96 83 92 91 88 87 85 85 83 76 82 81 74 81
132 128 120 126 115 118 114 114 115 118 115 115 114 114 111 111 111 111 110 108 106 103 103 102 100 99 96 95 95 94 94 92 88 89 85 86 88 86
133 131 131 128 126 126 127 126 123 121 120 120 117 116 117 117 115 114 111 108 108 92 105 103 90 98 99 98 98 96 92 99 96 96 91 91 91 91
132 131 130 129 129 129 127 127 125 124 121 120 120 119 118 117 116 112 110 110 107 97 105 105 106 103 107 99 103 102 99 102 101 96 95 92 95 94
132 131 130 129 128 126 124 123 123 122 121 120 118 118 119 119 115 112 116 112 102 108 106 111 101 96 100 103 109 107 105 103 90 96 90 94 95 96
128 127 127 127 126 127 126 125 120 120 119 118 116 117 116 114 112 108 107 107 100 108 103 97 108 101 97 93 94 94 98 101 101 98 96 95 96 96
125 124 123 122 123 123 121 120 118 118 116 118 120 114 111 110 108 108 107 107 100 100 95 81 80 75 75 72 71 74 76 78 86 91 99 98 98 99
101 101 104 106 106 109 112 108 120 107 107 109 105 98 86 95 92 96 83 80 77 76 75 73 74 73 70 64 63 62 62 68 73 79 86 89 94 98
91 90 90 91 90 89 88 80 79 84 78 77 81 78 77 74 74 75 73 73 72 72 73 75 74 75 66 63 65 66 64 62 60 69 77 83 88 95
93 89 85 83 88 81 79 79 79 80 79 76 76 76 73 73 72 70 69 72 73 73 75 77 77 75 72 65 71 71 73 73 71 69 67 72 84 92
91 88 84 91 80 78 76 76 75 75 76 71 71 71 69 68 69 70 72 72 71 71 72 74 73 73 73 71 70 74 75 79 80 81 81 81 81 83
91 90 89 87 82 87 86 79 78 76 70 70 70 68 68 71 71 69 70 70 71 72 72 72 72 72 73 72 73 77 80 81 84 85 89 91 93 95
89 88 88 87 84 82 77 76 76 76 73 69 72 70 71 70 70 70 71 73 72 75 75 74 73 74 74 76 76 79 80 78 84 88 94 96 99 101
92 87 83 85 81 83 79 78 74 74 71 69 70 69 69 71 70 74 72 72 73 75 75 75 73 73 70 70 71 75 75 75 80 84 90 90 61 95
93 91 88 85 82 82 79 79 76 85 74 68 68 65 72 64 71 70 65 64 66 68 68 71 72 69 65 67 72 75 77 79 84 88 94 95 94 96
95 93 90 89 88 86 83 82 76 73 71 68 68 67 67 69 68 66 62 61 63 62 66 67 63 59 56 61 72 82 83 85 83 88 110 110 114 88
96 94 92 91 88 86 84 81 78 77 73 70 70 70 70 69 66 65 70 61 60 61 63 65 55 51 58 62 67 78 79 68 49 47 50 58 64 64
92 93 93 92 89 87 84 83 81 78 76 71 72 70 69 70 70 64 68 60 59 58 58 56 47 55 59 65 70 59 64 63 51 37 37 41 39 41
93 89 87 91 91 88 86 84 81 80 78 75 73 72 71 68 67 65 61 60 57 56 53 50 49 54 59 66 51 61 61 56 48 39 37 36 36 33
93 92 89 84 89 88 87 85 82 80 78 76 74 72 70 69 68 65 61 57 54 52 47 45 50 51 54 57 53 51 48 39 39 28 24 21 17 16
Wind_Direction
259 259 260 273 263 262 265 264 267 262 266 280 255 274 278 281 274 262 276 259 262 258 270 265 270 266 269 266 267 267 263 264 263 261 261 266 262 262
257 257 267 267 260 260 273 265 262 265 270 261 261 261 255 267 253 265 274 266 276 273 276 274 265 268 266 269 265 265 262 261 261 263 262 260 267 260
258 261 267 268 264 263 265 269 250 264 263 265 275 275 275 275 276 272 260 274 271 276 275 269 273 258 272 270 265 264 261 260 258 262 260 258 263 264
261 262 249 263 267 270 271 271 267 270 270 271 273 274 273 268 274 271 274 274 267 275 274 273 273 267 272 272 270 268 264 262 260 261 254 258 261 255
261 264 267 266 265 267 267 268 268 269 270 270 270 271 271 271 272 274 275 276 275 273 274 274 273 273 273 272 269 267 266 264 261 261 256 252 249 255
263 264 263 264 266 266 267 268 268 268 269 269 270 271 271 271 271 272 273 273 274 268 273 273 265 271 270 270 270 268 265 266 263 263 257 254 250 249
260 261 261 262 263 264 265 266 267 267 269 270 270 270 271 271 272 271 270 272 273 269 272 273 273 272 274 270 270 268 263 266 265 261 258 257 254 248
258 260 261 262 263 264 264 265 267 268 268 268 269 270 272 272 270 270 272 272 269 272 272 278 269 268 269 270 270 268 266 264 261 260 259 257 254 252
258 259 261 262 263 265 265 266 267 268 267 267 268 270 270 269 268 268 269 271 269 271 270 267 273 272 270 267 267 266 264 260 257 256 255 255 254 251
261 262 263 263 263 263 266 264 265 266 267 269 271 269 267 268 269 270 271 271 271 270 270 268 267 268 268 270 269 267 264 262 257 254 252 251 250 251
256 257 258 259 260 261 262 262 265 265 266 266 267 267 265 267 267 268 266 266 267 267 269 267 266 267 269 271 271 271 271 265 260 257 251 249 248 247
256 257 257 259 260 260 261 262 262 264 264 264 264 264 264 264 265 265 265 267 266 266 267 266 268 269 267 265 266 268 269 269 265 259 255 250 248 247
256 257 257 257 259 260 261 262 262 264 264 264 264 265 264 265 265 265 265 265 266 266 264 267 269 269 268 262 266 267 266 266 264 262 259 255 252 250
255 257 260 257 260 260 260 260 261 262 264 262 263 263 263 263 263 264 264 267 266 266 266 266 266 267 267 268 266 264 263 264 264 263 261 259 256 255
254 255 255 256 259 256 258 261 261 262 260 261 262 261 262 266 267 266 268 268 269 270 269 269 269 269 271 271 267 267 266 265 263 261 261 260 258 258
253 254 255 255 256 257 259 260 261 261 262 260 264 264 265 265 268 270 270 271 272 274 274 272 273 273 272 271 269 268 267 264 262 262 260 258 256 256
251 252 254 254 255 255 256 257 259 259 260 263 262 264 266 265 270 270 273 275 275 276 276 277 278 278 277 276 276 273 269 266 264 261 259 258 253 255
251 251 252 253 254 253 254 255 255 258 259 260 260 262 263 266 270 272 269 270 266 277 276 276 276 279 285 283 277 276 279 277 273 268 265 263 258 255
251 252 252 251 252 253 254 254 254 255 255 256 257 259 260 261 263 265 270 272 275 276 278 278 281 283 280 278 280 282 278 280 278 277 272 264 261 255
250 250 251 252 252 252 254 254 254 254 255 255 256 257 259 261 263 266 264 273 276 277 280 282 287 287 284 284 283 287 289 301 263 278 273 269 269 268
245 245 248 249 250 251 252 253 254 255 255 256 257 258 260 262 263 269 267 273 273 276 280 285 291 288 290 291 296 285 305 302 305 290 276 274 264 265
243 243 244 245 248 249 250 251 252 254 255 255 256 258 260 263 265 268 270 273 275 276 281 285 287 290 294 299 290 309 306 313 305 298 290 282 275 268
242 243 243 244 244 246 248 249 251 252 253 255 255 256 258 260 263 266 268 270 271 274 279 284 287 292 293 299 299 316 316 316 314 308 307 297 292 278